DELTA 1 DEB, 10755

Orbit data source: Space-Track

DELTA 1 DEB, 10755 is space debris in SSO originally from a launch on Thu, 29 Jul 1976 UTC launched from the Air Force Western Test Range (AFWTR). Debris objects in space refer to the collection of defunct objects orbiting the Earth. Examples of debris include non-operational satellites, rocket bodies, and fragments generated from explosions, collisions, or faulty payload assembly.

Loading next visibility...
Identifier
10755, 1976-077BC
Orbit
SSO
Country
Flag of USUS
Related business
Manufacturer
Unknown
Mission
Spacecraft
Bus & Motor
Unknown
Mass
Unknown
Launch date (UTC)
1976-07-29 (49 years ago)
Launch vehicle
Unknown
Launch site
Air Force Western Test Range (AFWTR)
Object type
Payload
Rocket body
Debris
Shape & HBR
Unknown shape, 0.2 m
Radar Cross Section
Small (<0.1 m²)

Expand to show TLE details & history
Last TLE update: 13 hours ago

TLE from 13 hours ago
0 DELTA 1 DEB
1 10755U 76077BC  25292.19611991 -.00000007  00000-0  34309-3 0  9992
2 10755 102.5464 264.1211 0081377  85.4008 286.6433 12.26071954203587
Epoch: 2025-10-19T04:42Z
TLE epoch observation values (Epoch: 2025-10-19T04:42:24.760Z)
Latitude
10.8361°
Longitude
163.17214°
Altitude
1,549.933 km
Speed
7.101 km/s
True Right ascension
17h 26m 45s
True Declination
10° 46' 45"
Sunlit
Object was in daylight at epoch
Visualization orbit readout
Latitude
Unknown
Longitude
Unknown
Altitude
Unknown
Speed
Unknown
Apparent Right ascension
Unknown
Apparent Declination
Unknown
Sunlit
N/A
Visualization observer readout
Local Sidereal Time
12:50:21
Azimuth
Unknown
Elevation
Unknown
Doppler factor
Unknown
Orbital elements
Apogee altitude
1,628.459 km
Perigee altitude
1,499.2 km
Semi-major axis
7,941.967 km
Eccentricity
0.00814
Inclination
102.5464°
RAAN
264.1211°
Arg. of periapsis
85.4008°
True anomaly
285.74728°
Mean anomaly
286.6433°
Eccentric anomaly
286.19555°
Mean motion
3.06656 °/min
Orbital period
117.4 mins
BSTAR
0.00034309
Loading maneuver chart data...
Computing Atmospheric mass density...
Loading historical data...
Loading historical data...
Loading historical data...
Loading historical data...
Loading historical data...
Loading historical data...
Loading historical data...

Documentation

Showing up to 5 results
|